Regional Weather Roundup
Issued by NWS

Home | Current Version | Previous Version | Text Only | Print | Product List | Glossary On
Versions: 1 2 3 4 5 6 7 8 9 10 11 12 13 14 15 16 17 18 19 20 21 22 23 24 25 26 27 28 29 30 31 32 33 34 35 36 37 38 39 40 41 42 43 44 45 46 47 48 49 50
000
ASUS45 KCYS 270810
RWRWY

WYOMING REGIONAL WEATHER ROUNDUP
NATIONAL WEATHER SERVICE CHEYENNE WY
200 AM MDT FRI MAR 27 2015

NOTE:  "FAIR" INDICATES FEW OR NO CLOUDS BELOW 12,000 FEET
WITH NO SIGNIFICANT WEATHER AND/OR OBSTRUCTIONS TO VISIBILITY.

WYZ001-270900-
YELLOWSTONE NATIONAL PARK

CITY           SKY/WX    TMP DP  RH WIND       PRES   REMARKS
LK YELLOWSTONE   N/A     26  24  92 CALM      30.36F
W YELLOWSTONE  NOT AVBL

$$
WYZ002>013-054>058-071-098>099-270900-
NORTHERN WYOMING

CITY           SKY/WX    TMP DP  RH WIND       PRES   REMARKS
JACKSON        FAIR      30  30 100 N6        30.34S WCI  24
CODY           FAIR      54  28  37 W16G26    30.14S
GREYBULL       FAIR      45  32  60 E6        30.12S
WORLAND        FAIR      39  30  70 S9        30.13F WCI  33
SHERIDAN       CLOUDY    45  37  73 CALM      30.10F
BUFFALO        FAIR      43  35  73 SW7       30.12F
GILLETTE       CLOUDY    42  39  89 S7        30.09F
HULETT         DRIZZLE   41  37  87 SW10      30.09F
NEWCASTLE      CLOUDY    36  34  93 CALM      30.15S

$$
WYZ014>020-022>026-101>103-270900-
CENTRAL WYOMING

CITY           SKY/WX    TMP DP  RH WIND       PRES   REMARKS
BIG PINEY      FAIR      32  26  78 N8        30.33F WCI  25
PINEDALE       FAIR      34  28  80 NW10      30.33S WCI  26
DUBOIS         FAIR      41  28  60 W16       30.29F
LANDER         FAIR      46  26  45 W3        30.19S
RIVERTON       FAIR      49  30  48 NW21G29   30.19F
CASPER         CLOUDY    45  30  55 SW10      30.17S
DOUGLAS        CLOUDY    43  34  70 NW5       30.14F

$$
WYZ021-027>030-104>119-270900-
SOUTHERN WYOMING

CITY           SKY/WX    TMP DP  RH WIND       PRES   REMARKS
EVANSTON       FAIR      37  25  61 S6        30.39S WCI  32
KEMMERER       FAIR      34  30  86 NW8       30.36F WCI  27
FORT BRIDGER   FAIR      42  28  58 SW14      30.40S
ROCK SPRINGS   FAIR      39  29  67 W17       30.31F WCI  30
DIXON          FAIR      32  27  83 CALM      30.35S
RAWLINS        FAIR      36  27  69 SW5       30.27S WCI  32
SARATOGA       FAIR      37  28  70 SE6       30.28S WCI  33
LARAMIE        CLOUDY    36  27  69 W7        30.22S WCI  30
CHEYENNE       CLOUDY    43  28  55 W8        30.17F
TORRINGTON     CLOUDY    39  32  76 E10       30.13S WCI  32
PINE BLUFFS    CLOUDY    41  32  70 SW10      30.16S

$$


USA.gov is the U.S. government's official web portal to all federal, state and local government web resources and services.